Simultaneous Nadir Overpasses (SNOs) Predictions

Prediction of SNOs between AQUA and METOP-B Satellite Orbit:

Table of predicted SNOs for the next 14.0 days since TLE Epoch: 8/2/2013
Index Date (AQUA) Time (AQUA) Lat,Lon (AQUA) SZA (AQUA ) Date (METOP-B) Time (METOP-B) Lat,Lon (METOP-B) SZA (METOP-B ) Distance(km) Time Diff (sec)
1 08/04/2013 07:04:15 73.50, 68.91 56.36 08/04/2013 07:03:04 73.46, 68.02 56.37 28.67 71
2 08/04/2013 07:53:45 -73.74,-123.97 123.37 08/04/2013 07:53:41 -73.73,-124.03 123.38 2.44 4
3 08/04/2013 08:43:14 73.81, 43.53 56.71 08/04/2013 08:44:18 73.84, 43.55 56.73 3.23 64
4 08/07/2013 02:38:34 73.66, 135.00 57.30 08/07/2013 02:37:21 73.65, 134.87 57.31 4.39 73
5 08/07/2013 03:28:01 -73.74, -57.53 122.61 08/07/2013 03:28:02 -73.73, -57.63 122.62 3.52 1
6 08/07/2013 04:17:30 73.81, 109.95 57.48 08/07/2013 04:18:39 73.83, 109.94 57.48 1.54 69
7 08/09/2013 22:12:50 73.68,-158.62 58.12 08/09/2013 22:11:41 73.68,-158.64 58.14 0.63 69
8 08/09/2013 23:02:17 -73.76, 8.87 121.79 08/09/2013 23:02:22 -73.77, 8.88 121.78 0.94 5
9 08/09/2013 23:51:46 73.84, 176.33 58.31 08/09/2013 23:52:59 73.86, 176.44 58.32 4.41 73
10 08/12/2013 17:47:04 73.67, -92.16 58.95 08/12/2013 17:46:01 73.67, -92.27 58.95 3.37 63
11 08/12/2013 18:36:31 -73.74, 75.33 120.97 08/12/2013 18:36:42 -73.75, 75.26 120.96 2.47 11
12 08/12/2013 19:26:04 74.04,-117.68 59.36 08/12/2013 19:27:15 74.04,-116.71 59.32 29.80 71
13 08/15/2013 13:21:19 73.69, -25.75 59.82 08/15/2013 13:20:21 73.69, -25.79 59.84 1.35 58
14 08/15/2013 14:10:46 -73.75, 141.76 120.10 08/15/2013 14:11:02 -73.78, 141.74 120.07 3.49 16




NCC Satellite Simultaneous Nadir Overpasses (SNOs) Prediction Service
